THORAD AGENA D DEB, 4643

Orbit data source: Space-Track

THORAD AGENA D DEB, 4643 is space debris in SSO originally from a launch on Wed, 08 Apr 1970 UTC launched from the Air Force Western Test Range (AFWTR). Debris objects in space refer to the collection of defunct objects orbiting the Earth. Examples of debris include non-operational satellites, rocket bodies, and fragments generated from explosions, collisions, or faulty payload assembly.

Loading next visibility...
Identifier
4643, 1970-025AB
Orbit
SSO
Country
Flag of USUS
Related business
Manufacturer
Unknown
Mission
Spacecraft
Bus & Motor
Unknown
Mass
Unknown
Launch date (UTC)
1970-04-08 (56 years ago)
Launch vehicle
Unknown
Launch site
Air Force Western Test Range (AFWTR)
Object type
Payload
Rocket body
Debris
Shape & HBR
Unknown shape, 0.2 m
Radar Cross Section
Small (<0.1 m²)

Expand to show TLE details & history
Last TLE update: 13 hours ago

TLE from 13 hours ago
0 THORAD AGENA D DEB
1 04643U 70025AB  25311.16544896  .00000198  00000-0  34686-3 0  9994
2 04643  99.4093 165.1615 0011425  61.1177  62.5700 13.55149912741736
Epoch: 2025-11-07T03:58Z
TLE epoch observation values (Epoch: 2025-11-07T03:58:14.790Z)
Latitude
55.15914°
Longitude
-107.31302°
Altitude
1,058.526 km
Speed
7.33 km/s
True Right ascension
23h 55m 26s
True Declination
55° 00' 15"
Sunlit
Object was in full shadow at epoch
Visualization orbit readout
Latitude
Unknown
Longitude
Unknown
Altitude
Unknown
Speed
Unknown
Apparent Right ascension
Unknown
Apparent Declination
Unknown
Sunlit
N/A
Visualization observer readout
Local Sidereal Time
13:27:09
Azimuth
Unknown
Elevation
Unknown
Doppler factor
Unknown
Orbital elements
Apogee altitude
1,059.138 km
Perigee altitude
1,042.163 km
Semi-major axis
7,428.788 km
Eccentricity
0.00114
Inclination
99.4093°
RAAN
165.1615°
Arg. of periapsis
61.1177°
True anomaly
62.68628°
Mean anomaly
62.57°
Eccentric anomaly
62.62813°
Mean motion
3.38974 °/min
Orbital period
106.2 mins
BSTAR
0.00034686
Loading maneuver chart data...
Computing Atmospheric mass density...

Documentation

Showing up to 5 results
|